| time (UTC) | temp F | wind direction | speed MPH | gust MPH | rain 1hr in | rain 24hr in | rain mn in | humidity % | barometer mb |
| 20260508033010 | 42 | 116 | 0.0 | 1.0 | 0.00 | 0.67 | 0.00 | 99 | 1002.0 |
| 20260508031508 | 42 | 116 | 0.0 | 0.0 | 0.00 | 0.67 | 0.00 | 99 | 1001.9 |
| 20260508030006 | 42 | 116 | 0.0 | 0.0 | 0.00 | 0.67 | 0.67 | 99 | 1002.1 |
| 20260508024506 | 42 | 116 | 0.0 | 0.0 | 0.00 | 0.67 | 0.67 | 99 | 1002.4 |
| 20260508023007 | 43 | 116 | 0.0 | 2.0 | 0.00 | 0.67 | 0.67 | 99 | 1002.0 |
| 20260508021503 | 44 | 118 | 2.0 | 6.0 | 0.00 | 0.67 | 0.67 | 98 | 1002.3 |
| 20260508020004 | 46 | 41 | 0.0 | 1.0 | 0.00 | 0.67 | 0.67 | 99 | 1001.9 |
| 20260508014505 | 46 | 134 | 0.0 | 2.0 | 0.00 | 0.67 | 0.67 | 99 | 1001.8 |
| 20260508013003 | 46 | 135 | 0.0 | 0.0 | 0.00 | 0.67 | 0.67 | 100 | 1001.6 |
| 20260508011502 | 45 | 135 | 0.0 | 0.0 | 0.00 | 0.67 | 0.67 | 99 | 1001.6 |
| 20260508010003 | 45 | 177 | 0.0 | 2.0 | 0.00 | 0.67 | 0.67 | 100 | 1001.6 |
| 20260508004503 | 45 | 104 | 0.0 | 6.0 | 0.00 | 0.67 | 0.67 | 99 | 1001.9 |
| 20260508003003 | 46 | 160 | 1.0 | 2.0 | 0.00 | 0.67 | 0.67 | 100 | 1001.9 |
| 20260508001601 | 45 | 122 | 0.0 | 1.0 | 0.00 | 0.67 | 0.67 | 99 | 1001.7 |
| 20260507234602 | 45 | 129 | 0.0 | 0.0 | 0.00 | 0.67 | 0.67 | 99 | 1001.3 |
| 20260507233058 | 45 | 129 | 0.0 | 1.0 | 0.00 | 0.67 | 0.67 | 99 | 1001.4 |
| 20260507231600 | 44 | 129 | 0.0 | 1.0 | 0.00 | 0.67 | 0.67 | 99 | 1001.6 |
| 20260507230100 | 45 | 129 | 0.0 | 3.0 | 0.00 | 0.67 | 0.67 | 98 | 1001.5 |
| 20260507224616 | 45 | 129 | 0.0 | 2.0 | 0.00 | 0.67 | 0.67 | 98 | 1001.5 |
| 20260507223100 | 46 | 118 | 0.0 | 6.0 | 0.00 | 0.67 | 0.67 | 98 | 1001.5 |
| 20260507221556 | 46 | 120 | 0.0 | 6.0 | 0.00 | 0.67 | 0.67 | 99 | 1001.6 |
| 20260507220058 | 47 | 123 | 3.0 | 11.0 | 0.01 | 0.67 | 0.67 | 98 | 1002.0 |
| 20260507214602 | 49 | 163 | 1.0 | 8.0 | 0.02 | 0.67 | 0.67 | 99 | 1001.6 |
| 20260507213054 | 49 | 109 | 1.0 | 7.0 | 0.06 | 0.67 | 0.67 | 100 | 1002.1 |
| 20260507211618 | 46 | 42 | 0.0 | 5.0 | 0.13 | 0.67 | 0.67 | 99 | 1001.4 |
| 20260507210054 | 46 | 146 | 4.0 | 9.0 | 0.19 | 0.66 | 0.66 | 97 | 1001.8 |
| 20260507204600 | 50 | 124 | 4.0 | 9.0 | 0.26 | 0.65 | 0.65 | 99 | 1001.7 |
| 20260507203048 | 49 | 81 | 2.0 | 5.0 | 0.27 | 0.60 | 0.60 | 100 | 1002.3 |
| 20260507201557 | 47 | 133 | 0.0 | 8.0 | 0.25 | 0.54 | 0.54 | 99 | 1002.7 |
| 20260507200056 | 46 | 98 | 1.0 | 6.0 | 0.22 | 0.47 | 0.47 | 98 | 1002.9 |
| 20260507194542 | 46 | 75 | 0.0 | 3.0 | 0.24 | 0.39 | 0.39 | 99 | 1003.7 |
| 20260507193041 | 45 | 75 | 0.0 | 2.0 | 0.25 | 0.33 | 0.33 | 98 | 1004.0 |
| 20260507191548 | 44 | 72 | 0.0 | 4.0 | 0.26 | 0.28 | 0.28 | 98 | 1003.8 |
| 20260507190039 | 44 | 115 | 3.0 | 6.0 | 0.22 | 0.24 | 0.24 | 96 | 1004.1 |
| 20260507184537 | 45 | 109 | 2.0 | 7.0 | 0.13 | 0.16 | 0.16 | 96 | 1004.6 |
| 20260507183036 | 47 | 120 | 1.0 | 10.0 | 0.06 | 0.08 | 0.08 | 96 | 1004.4 |
| 20260507181534 | 48 | 62 | 3.0 | 9.0 | 0.00 | 0.02 | 0.02 | 96 | 1004.7 |
| 20260507180042 | 48 | 116 | 2.0 | 7.0 | 0.00 | 0.02 | 0.02 | 97 | 1004.3 |
| 20260507174535 | 48 | 209 | 4.0 | 12.0 | 0.00 | 0.02 | 0.02 | 95 | 1004.3 |
| 20260507173034 | 49 | 137 | 1.0 | 12.0 | 0.00 | 0.02 | 0.02 | 96 | 1004.5 |
| 20260507171531 | 49 | 140 | 5.0 | 15.0 | 0.00 | 0.02 | 0.02 | 96 | 1004.9 |
| 20260507170031 | 49 | 86 | 5.0 | 11.0 | 0.00 | 0.02 | 0.02 | 95 | 1004.8 |
| 20260507164530 | 49 | 130 | 4.0 | 12.0 | 0.00 | 0.02 | 0.02 | 95 | 1004.9 |
| 20260507163027 | 49 | 123 | 4.0 | 11.0 | 0.00 | 0.02 | 0.02 | 95 | 1005.3 |
| 20260507161524 | 49 | 120 | 6.0 | 12.0 | 0.00 | 0.02 | 0.02 | 95 | 1006.1 |
| 20260507160024 | 49 | 202 | 5.0 | 12.0 | 0.00 | 0.02 | 0.02 | 94 | 1006.3 |
| 20260507154522 | 50 | 193 | 4.0 | 12.0 | 0.00 | 0.02 | 0.02 | 96 | 1006.6 |
| 20260507153027 | 49 | 121 | 5.0 | 10.0 | 0.00 | 0.02 | 0.02 | 96 | 1006.6 |
| 20260507151519 | 49 | 110 | 4.0 | 13.0 | 0.00 | 0.02 | 0.02 | 95 | 1006.9 |
| 20260507150017 | 50 | 96 | 5.0 | 14.0 | 0.00 | 0.02 | 0.02 | 95 | 1007.2 |
| 20260507144515 | 51 | 193 | 3.0 | 13.0 | 0.00 | 0.02 | 0.02 | 97 | 1007.5 |
| 20260507143014 | 51 | 112 | 3.0 | 12.0 | 0.00 | 0.02 | 0.02 | 97 | 1007.8 |
| 20260507141513 | 51 | 152 | 3.0 | 11.0 | 0.00 | 0.02 | 0.02 | 98 | 1008.1 |
| 20260507140023 | 50 | 102 | 3.0 | 14.0 | 0.00 | 0.02 | 0.02 | 98 | 1008.0 |
| 20260507134511 | 49 | 74 | 5.0 | 12.0 | 0.00 | 0.02 | 0.02 | 99 | 1008.0 |
| 20260507133010 | 49 | 121 | 4.0 | 12.0 | 0.00 | 0.02 | 0.02 | 98 | 1008.1 |
| 20260507131510 | 50 | 113 | 6.0 | 13.0 | 0.00 | 0.02 | 0.02 | 98 | 1008.1 |
| 20260507130007 | 49 | 341 | 2.0 | 10.0 | 0.01 | 0.02 | 0.02 | 99 | 1008.5 |
| 20260507124512 | 48 | 117 | 5.0 | 10.0 | 0.02 | 0.02 | 0.02 | 99 | 1008.8 |
| 20260507123004 | 47 | 164 | 2.0 | 12.0 | 0.02 | 0.02 | 0.02 | 99 | 1008.6 |
| 20260507121503 | 48 | 69 | 5.0 | 12.0 | 0.02 | 0.02 | 0.02 | 99 | 1009.3 |
| 20260507120001 | 49 | 85 | 3.0 | 9.0 | 0.02 | 0.02 | 0.02 | 99 | 1009.5 |
| 20260507114600 | 48 | 163 | 2.0 | 11.0 | 0.00 | 0.00 | 0.00 | 100 | 1010.0 |
| 20260507113059 | 46 | 93 | 3.0 | 11.0 | 0.00 | 0.00 | 0.00 | 99 | 1010.4 |
| 20260507111559 | 46 | 158 | 4.0 | 10.0 | 0.00 | 0.00 | 0.00 | 99 | 1010.5 |
| 20260507110100 | 45 | 69 | 5.0 | 12.0 | 0.00 | 0.00 | 0.00 | 98 | 1010.5 |
| 20260507104556 | 46 | 79 | 4.0 | 9.0 | 0.00 | 0.00 | 0.00 | 100 | 1010.4 |
| 20260507103056 | 44 | 86 | 2.0 | 8.0 | 0.00 | 0.00 | 0.00 | 99 | 1010.8 |
| 20260507101604 | 43 | 169 | 1.0 | 9.0 | 0.00 | 0.00 | 0.00 | 98 | 1010.9 |
| 20260507100052 | 44 | 136 | 3.0 | 10.0 | 0.00 | 0.00 | 0.00 | 98 | 1011.7 |
| 20260507094559 | 45 | 94 | 4.0 | 9.0 | 0.00 | 0.00 | 0.00 | 99 | 1012.0 |
| 20260507093049 | 44 | 149 | 2.0 | 9.0 | 0.00 | 0.00 | 0.00 | 98 | 1012.4 |
| 20260507091600 | 44 | 156 | 1.0 | 6.0 | 0.00 | 0.00 | 0.00 | 98 | 1012.2 |
| 20260507090109 | 44 | 148 | 2.0 | 8.0 | 0.00 | 0.00 | 0.00 | 98 | 1012.2 |
| 20260507084549 | 45 | 109 | 2.0 | 9.0 | 0.00 | 0.00 | 0.00 | 98 | 1011.6 |
| 20260507083046 | 45 | 110 | 2.0 | 6.0 | 0.00 | 0.00 | 0.00 | 98 | 1012.2 |
| 20260507081553 | 44 | 153 | 0.0 | 4.0 | 0.00 | 0.00 | 0.00 | 98 | 1012.3 |
| 20260507080043 | 43 | 95 | 1.0 | 8.0 | 0.00 | 0.00 | 0.00 | 98 | 1012.6 |
| 20260507074543 | 42 | 143 | 1.0 | 7.0 | 0.00 | 0.00 | 0.00 | 96 | 1012.7 |
| 20260507073054 | 44 | 111 | 3.0 | 9.0 | 0.00 | 0.00 | 0.00 | 96 | 1012.7 |
| 20260507071538 | 44 | 110 | 3.0 | 8.0 | 0.00 | 0.00 | 0.00 | 97 | 1013.2 |
| 20260507070055 | 44 | 81 | 2.0 | 10.0 | 0.00 | 0.00 | 0.00 | 96 | 1012.9 |
| 20260507064536 | 44 | 110 | 2.0 | 10.0 | 0.00 | 0.00 | 0.00 | 96 | 1013.2 |
| 20260507063034 | 44 | 114 | 3.0 | 11.0 | 0.00 | 0.00 | 0.00 | 95 | 1013.3 |
| 20260507061534 | 45 | 112 | 3.0 | 11.0 | 0.00 | 0.00 | 0.00 | 96 | 1013.5 |
| 20260507060033 | 44 | 114 | 6.0 | 13.0 | 0.00 | 0.00 | 0.00 | 94 | 1013.9 |
| 20260507054528 | 45 | 76 | 5.0 | 13.0 | 0.00 | 0.00 | 0.00 | 93 | 1013.6 |
| 20260507053027 | 46 | 46 | 7.0 | 12.0 | 0.00 | 0.00 | 0.00 | 93 | 1013.7 |
| 20260507051525 | 45 | 100 | 5.0 | 9.0 | 0.00 | 0.00 | 0.00 | 94 | 1013.9 |
| 20260507050031 | 43 | 96 | 1.0 | 11.0 | 0.00 | 0.00 | 0.00 | 92 | 1014.1 |
| 20260507044538 | 43 | 108 | 3.0 | 8.0 | 0.00 | 0.00 | 0.00 | 90 | 1014.3 |
| 20260507043017 | 44 | 52 | 2.0 | 5.0 | 0.00 | 0.00 | 0.00 | 89 | 1014.7 |
| 20260507041514 | 44 | 355 | 2.0 | 8.0 | 0.00 | 0.00 | 0.00 | 87 | 1014.7 |
| 20260507040011 | 46 | 86 | 3.0 | 9.0 | 0.00 | 0.00 | 0.00 | 82 | 1014.8 |
| 20260507034507 | 53 | 49 | 4.0 | 9.0 | 0.00 | 0.00 | 0.00 | 70 | 1014.8 |